#timestamp,LO_Frequency,Hit,StdDev 
1663153215.4,286046999.9,N
1663153235.3,286046998.9,N
1663153255.1,286046997.8,N
1663153275.8,286046996.8,N
1663153295.7,286046997.2,N
1663153315.5,286046996.7,N
1663153335.4,286046999.4,N
1663153355.2,286046998.7,N
1663153375.0,286047001.1,N
1663153375.9,286047001.1,N
1663153395.8,286046999.7,N
1663153415.6,286047000.2,N
1663153435.4,286046999.9,N
1663153455.3,286047001.5,N
1663153475.1,286047002.2,N
1663153495.9,286047002.1,N
1663153515.7,286047000.2,N
1663153535.5,286047001.8,N
1663153555.4,286047004.0,N
1663153575.2,286047001.6,N
1663153595.1,286047001.3,N
1663153596.0,286047001.3,N
1663153615.8,286047005.5,N
1663153635.6,286047005.8,N
1663153655.5,286047004.2,N
1663153675.3,286047003.8,N
1663153695.1,286047004.0,N
1663153715.9,286047002.1,N
1663153735.7,286047002.2,N
1663153755.6,286047002.6,N
1663153775.4,286047002.5,N
1663153795.2,286047002.2,N
1663153815.1,286047003.7,N
1663153816.0,286047003.7,N
1663153835.8,286047001.8,N
1663153855.6,286047000.5,N
1663153875.5,286047000.7,N
1663153895.3,286047000.7,N
1663153915.2,286047000.5,N
1663153935.9,286047002.7,N
1663153955.7,286047001.9,N
1663153975.6,286047002.4,N
1663153995.4,286047002.0,N
1663154015.2,286047003.1,N
1663154035.1,286047003.8,N
1663154036.0,286047003.8,N
1663154055.8,286047005.9,Y
1663154075.7,286047000.6,P
1663154095.5,286047000.9,N
1663154115.3,286046999.0,N
1663154135.2,286046999.0,N
1663154155.0,286046998.8,N
1663154155.9,286046998.8,N
1663154175.8,286046999.7,N
1663154195.6,286047000.9,N
1663154215.4,286047001.1,N
1663154235.3,286047001.6,N
1663154255.1,286047002.0,N
1663154275.9,286047000.5,N
1663154295.7,286047002.3,N
1663154315.5,286047000.2,N
1663154335.4,286047000.5,N
1663154355.2,286047000.9,N
1663154375.1,286046999.3,N
1663154376.0,286046999.3,N
1663154395.8,286046998.4,N
1663154415.6,286046998.7,N
1663154435.5,286046996.5,N
1663154455.3,286046997.4,N
1663154475.1,286046999.2,N
1663154495.9,286046999.3,N
1663154515.7,286047000.8,N
1663154535.6,286046999.8,N
1663154555.4,286047000.0,N
1663154575.2,286047000.1,N
1663154595.1,286046999.8,N
1663154596.0,286046999.8,N
1663154615.8,286047002.7,N
1663154635.6,286047002.2,N
1663154655.5,286047002.6,N
1663154675.3,286046998.5,N
1663154695.2,286047000.9,N
1663154715.9,286046999.9,N
1663154735.7,286047000.9,N
1663154755.6,286046998.2,N
1663154775.4,286047000.4,N
1663154795.2,286047002.4,N
1663154815.1,286047000.2,N
1663154816.0,286047000.2,N
1663154835.8,286047000.4,N
1663154855.7,286047002.7,N
1663154875.5,286047000.3,N
1663154895.3,286046998.2,N
1663154915.2,286046999.6,N
1663154935.0,286046997.3,N
1663154935.9,286046997.3,N
1663154955.8,286046999.1,N
1663154975.6,286046999.2,N
1663154995.4,286046999.1,N
1663155015.3,286046997.4,N
1663155035.1,286046996.8,N
1663155055.8,286046998.8,N
1663155075.7,286046998.6,N
1663155095.5,286046999.9,N
1663155115.4,286047000.3,N
1663155135.2,286046998.5,N
1663155155.0,286047002.0,N
1663155155.9,286047002.0,N
1663155175.8,286047004.1,N
1663155195.6,286047001.8,N
1663155215.4,286047002.0,N
1663155235.3,286047001.6,N
1663155255.1,286047002.7,N
1663155275.9,286047001.6,N
1663155295.7,286047001.6,N
1663155315.5,286047001.9,N
1663155335.4,286047001.6,N
1663155355.2,286047001.5,N
1663155375.0,286046999.9,N
1663155376.0,286046999.9,N
1663155395.8,286047000.3,N
1663155415.6,286047002.4,N
1663155435.5,286047002.6,N
1663155455.3,286047002.8,N
1663155475.1,286046998.2,N
1663155495.9,286046999.1,N
1663155515.7,286046997.0,N
1663155535.6,286046999.6,N
1663155555.4,286046999.9,N
1663155575.2,286047001.9,N
1663155595.1,286047002.0,N
1663155596.0,286047002.0,N
1663155615.8,286047001.6,N
1663155635.7,286047003.9,N
1663155655.5,286047002.7,N
1663155675.3,286047002.8,N
1663155695.2,286047000.2,N
1663155715.0,286047004.4,N
1663155715.9,286047004.4,N
1663155735.7,286047001.3,N
1663155755.6,286047003.0,N
1663155775.4,286047005.4,Y
1663155795.3,286047003.2,P
1663155815.1,286047001.7,N
1663155835.8,286047002.8,P
1663155855.7,286046999.7,N
1663155875.5,286046999.8,N
1663155895.4,286047000.4,N
1663155915.2,286047011.9,Y
1663155935.0,286047002.7,P
1663155935.9,286047002.7,P
1663155955.8,286047002.8,P
1663155975.6,286046999.1,N
1663155995.5,286046995.4,Y
1663156015.3,286046996.2,P
1663156035.1,286046997.6,N
1663156055.9,286046996.9,N
1663156075.7,286046997.3,N
1663156095.5,286046997.8,N
1663156115.4,286046997.6,N
1663156135.2,286046996.0,N
1663156155.1,286046996.4,N
1663156156.0,286046996.4,N
1663156175.8,286046996.4,N
1663156195.6,286046993.8,Y
1663156215.5,286046997.7,P
1663156235.3,286046998.9,P
1663156255.2,286047000.7,N
1663156275.9,286047002.4,N
1663156295.7,286047002.2,N
1663156315.6,286047001.5,N
1663156335.4,286047004.4,N
1663156355.2,286047001.4,N
1663156375.1,286047004.3,N
1663156376.0,286047004.3,N
1663156395.8,286047004.2,N
1663156415.7,286047004.2,N
1663156435.5,286047003.0,N
1663156455.3,286047004.0,N
1663156475.2,286047001.4,N
1663156495.0,286047001.6,N
1663156495.9,286047001.6,N
1663156515.8,286047002.4,N
1663156535.6,286047002.4,N
1663156555.4,286047000.4,N
1663156575.3,286047000.6,N
1663156595.1,286046998.1,N
1663156615.8,286047000.8,N
1663156635.7,286047000.5,N
1663156655.5,286047000.3,N
1663156675.4,286047000.2,N
1663156695.2,286047002.4,N
1663156715.0,286047001.9,N
1663156715.9,286047001.9,N
1663156735.8,286047002.3,N
1663156755.6,286047002.6,N
1663156775.5,286047001.5,N
1663156795.3,286047004.4,N
